Location: Archamps
(46.1365°N, 6.1329°E)
Time: 18:23:24
(UTC+00:00)

BlueWalker 3 - Pass Details

Date: 28 January 2023
Orbit: 497 x 514 km, 53.2° (Epoch: 29 March)

Event Time Altitude Azimuth Distance (km) Brightness Sun altitude
Rises 18:39:40 0° 258° (WSW) 2,596 7.1 -21.7°
Reaches altitude 10° 18:41:55 10° 265° (W) 1,718 5.8 -22.1°
Maximum altitude 18:45:39 45° 339° (NNW) 708 2.7 -22.8°
Enters shadow 18:45:50 44° 348° (NNW) 711 2.7 -22.8°
